T³ - TableTop Tournaments
Welcome Guest. Please log in or register.
  

Login with nickname/ID and password (Lost password?).
Tabletop-Insider.de
Follow us:facebooktwitterrss | supportContact

Tournament Overview

Register your own tournamentTo the map

Please select a game system:


"Warhammer Age of Sigmar"-tournaments in the next months:

DateTournamentLocationSeats
May 2022
2022-05-28Bash'O'Poulpe V2F74930 Reignier-Esery16/18
2022-05-28Games Island - Champions of Sigmar VID95032 Hof36/24
2022-05-28Tournoi AOS 1000 ptsF56100 Lorient7/8
2022-05-29Age of Sigmar Tournoi Training Day - Préparation au FWDF38000 Grenoble9/48
2022-05-29Immaterium Café Tournament AoS #2F83000 Toulon12/12
June 2022
2022-06-04Age of ACE II: le RetourF91000 Evry-Courcouronnes33/24
2022-06-043. Squiggz AoS TurnierD87700 Memmingen15/20
2022-06-04Montreux Miniature Show AoS - soloCH1815 Montreux16/20
2022-06-05Play with friends!D13627 Berlin11/18
2022-06-05Austrian GT 2022(support)A2700 Wiener Neustadtcanceled
2022-06-11VI. Age of OSnaD49082 Osnabrück43/40
2022-06-11Tournoi Aos, Le repaire de l'ogre, juin 2022F42130 Boën Sur Lignon9/12
2022-06-11Lay low the Tyrants 6(support)D53757 Sankt Augustin24/14
2022-06-18Les batailles fantastiquesF94200 Ivry-Sur-Seine20/24
2022-06-18Tales in the Wood VIA6675 Tannheim30/36
2022-06-18Realmgate Ratisbona 2022/01D93059 Regensburg16/24
2022-06-18AOS TABLERAZE TOURNAMENT Juin 2022F34000 Montpellier10/10
2022-06-186. Mayener Mayhem AoS Turnier - 2000 Punkte - TeamD56727 Mayen28/24
2022-06-19Summer game 4 - AOS(group)F38090 Bonnefamille16/18
2022-06-19Les Bagarres du Squig - #05F94200 Ivry-Sur-Seine34/26
2022-06-25Belgian AoS Championship - FinaleB6044 Rouxcanceled
2022-06-25FRENCH WARGAME DAY AOS(hot)(group)F38029 Grenoble315/200
2022-06-25Solo AoS de Juin à UtopolysF59370 Mons En Baroeul32/24
2022-06-25Tournois du Temple AoS - 25/06/2022F63000 Clermont-Ferrand6/16
2022-06-26Crown of Champions - SummerSlashD69126 Heidelberg54/26
July 2022
2022-07-02FLUFF 3 : double dose d’AOSF33700 Mérignac14/40
2022-07-02Lëtz play AOS 4L1490 Luxembourg44/40
2022-07-02Le Kumité - Été 2022F69008 Lyon14/24
2022-07-03Area 57 June TournamentCH6044 Udligenswil13/16
2022-07-091. Scheunenrangeln(support)D50126 Bergheim-Glesch29/20
2022-07-10AOS DARK DAY - Estivale éditionF62100 Calais27/24
2022-07-16Age of griffons 2022 1er EditionF33800 Bordeaux49/40
2022-07-16Drachenfeuer 3(support)D86733 Alerheim26/32
2022-07-16Age of Sigmar Barnyard Bash 1500(hot)A4483 Hargelsberg7/14
2022-07-16Age of RagnarökD63741 Aschaffenburg Nilkheim2/18
2022-07-17AoS: Strategenhammer goes Royal RumbleD85221 Dachaucanceled
2022-07-23Miniparadice Jubiläums Turnier (10. AoS Turnier)D34281 Gudensberg (bei Kassel)47/34
2022-07-23Müggelhammer 1D12559 Berlin14/16
2022-07-30Games Island - Champions of Sigmar VIID95032 Hof0/24
August 2022
2022-08-062. AoS Eastside ClashD04315 Leipzig19/22
2022-08-062. Hellertal Heads UpD57562 Herdorf12/14
2022-08-203. Freistaat Schlacht - Age of Sigmar NachholterminD99707 Seega13/20
2022-08-27Solo AoS d'Août à UtopolysF59370 Mons En Baroeul10/24
2022-08-27Games Island - Champions of Sigmar VIIID95032 Hof0/24
2022-08-2722. Würfelgötter AoS Turnier (2-Tages Edition)(support)D45894 Gelsenkirchen66/34
September 2022
2022-09-03Lëtz play AOS in teamL1469 Luxembourg21/100
2022-09-03Hammers of Ortenau Vol. 2.2D77652 Offenburg21/18
2022-09-16Raccoon Rumble(hot)D34246 Vellmar119/200
2022-09-17Crown of Champions - Fallende Blätter, blitzende HämmerD69126 Heidelberg26/26
2022-09-18[QC] Tournoi Débutant : AOSF25000 Besançon11/12
2022-09-242. Erfurter Puffbohnencup Age of SigmarD99086 Erfurt12/24
October 2022
2022-10-01Solo AoS d'Octobre à UtopolysF59370 Mons En Baroeul8/24
2022-10-01GRABUJF33138 Lanton10/18
2022-10-08Lay low the Tyrants 7(support)D53757 Sankt Augustin17/14
2022-10-082. ScheunenrangelnD50126 Bergheim-Glesch10/30
2022-10-09Bastards Ath War Age of Sigmar IIB7802 Ath48/36
2022-10-221st annual Siegerland OpenD57072 Siegen3/18
November 2022
2022-11-05VII. Age of OSnaD49082 Osnabrück25/32
2022-11-05Lay low the Tyrants 8(support)D56414 Hundsangen19/20
2022-11-1223. Würfelgötter AoS Turnier(support)D45894 Gelsenkirchen16/32
2022-11-20Crown of Champions - Winter is comingD69126 Heidelberg17/26
2022-11-20Bastards Ath War Age of Sigmar IIIB7802 Ath29/32
2022-11-263. ScheunenrangelnD50126 Bergheim-Glesch12/30
2022-11-27Doublette AoS de Novembre à UtopolysF59370 Mons En Baroeul4/24
December 2022
2022-12-04FLUFF & DARK DAY 2022(support)F62100 Calais4/24
2022-12-04The Leicester GT(hot)UKLeicester LE1 3U200
March 2023
2023-03-11GermanTabletopChampionships 2023D49324 Melle192
June 2023
2023-06-17Malemoule Fest - Le Choc des RégionsF69000 - - -40/300
Calendar
Info: The date of each tournament can be download as an ICS-file by clicking on the date. In addition we offer a complete tournament calendar: ICS (iCal: webcal). What is ICS?

You can subscribe to the calendar with an ICS-compatible software (like Mozilla/Calendar or iCal).

past "Warhammer Age of Sigmar"-Tournaments (max. the last 20):

DateTournamentLocationSeats
2022-05-22Crimson Thunder 02D01099 Dresdencanceled
2022-05-224ème Tournoi Age of Sigmar en doublette 2x1000 points Hobby MaxF59800 Lille11/12
2022-05-22Strastegie Age of Elsass 2022F67100 Strasbourg38/50
2022-05-22Schlacht um Wr Neustadt IVA2700 Wiener Neustadt15/24
2022-05-22[AoS] Voir Excelsior et...F38000 Grenoble0/10
2022-05-22Le Kumité - Printemps 2022F69008 Lyon22/28
2022-05-22AoS - KINGDOMS OF OMENF83600 Fréjus0/40
2022-05-22Nauticup AoS GT 2022D18299 Laage - Kritzkow16/40
2022-05-21Tournois du Temple AoS - 21/05/2022F63000 Clermont-Ferrand4/8
2022-05-15Chamber of War: double tournamentB2800 Mechelen22/32
2022-05-15Solo AoS de Mai à UtopolysF59370 Mons En Baroeulcanceled
2022-05-15AOS BaselCH4127 Birsfelden8/10
2022-05-1421. Würfelgötter AoS TurnierD45894 Gelsenkirchen28/32
2022-05-14Tournoi Aos, Le repaire de l'ogre, mai 2022F42130 Boën Sur Lignon16/16
2022-05-141. Hellertal Heads UpD57562 Herdorf12/14
2022-05-14A l'Auberge Baffamicale AOS tournament (Le DARK en vadrouille)F28260 Bercheres Sur Vesgre24/24
2022-05-08Il va y avoir du GRABUJ !F33138 Lanton11/18
2022-05-07Grashraks Call for Blood (AoS Team Turnier)D34281 Gudensberg34/40
2022-05-07L'appel du TrôneF31320 Castanet Tolosan18/18
2022-05-07AoS Nation #4F75012 Paris17/18
Show complete list


Tabletops: A Call to Arms: Star Fleet | A Fantastic Saga | A Song of Ice & Fire | Adeptus Titanicus | Aeronautica Imperialis | Âge des Escarmouches | Alkemy | Anima Tactics | Arcane Legions | Arena Deathmatch | Arena Rex | Aristeia! | Armageddon (Magora etc.) | Armalion | Armati | Astrahys | AT-43 | Babylon 5 | Batman Miniature Game | Battlefield Evolution | Battlefleet Gothic | BattleTech: Alpha Strike | Behind Omaha | Beyond the Gates of Antares | Black Seas - The Age Of Sail | Blackwater Gulch | Blitz Bowl | Blitzkrieg Commander | Blood & Plunder | Blood Bowl | Blood Red Skies | Bloodfields | Blücher | Bolt Action | Briskars | Bushido | By Fire and Sword | Caeris | Carnevale | Celtos | Chronopia | Clan War | Clash of Empires | Classic BattleTech | Confrontation 3/3.5 | Confrontation: AoR | Congo | Conquest - The Last Argument of Kings | Conquest: First Blood | D&D Attack Wing | Dark Age | Darklands | De Bellis Antiquitatis | De Bellis Magistrorum Militum | De Bellis Multitudinis | Dead Man's Hand | Deadzone | DeepWars | Demonworld | Dracula's America | Drakerys | Dreadball | Dropfleet Commander | Dropzone Commander | Dust 1947 | Dust Tactics Battlefield | Dust Warfare | Dystopian Legions | Dystopian Wars | Eden | Epic Armageddon | Ex Illis | Fallout: Wasteland Warfare | Fantasy Warriors | Fearless | Field of Glory | Field of Glory - Ancient and Medieval | Field of Glory - Napoleonic | Field of Glory - Renaissance | Fire and Fury | Firestorm Armada | Firestorm Planetfall | Flames of War | Fleet Commander | Flintloque | Force on Force | Freebooter's Fate | Frères d'Armes | Frostgrave | Furie | Gangs of Mega-City One | Gangs of Rome | Gaslands | Gear Krieg | Godslayer | Godtear | Goetterdaemmerung | Golgotha | Gorkamorka | Guild Ball | Hail Caesar | Heavy Gear Blitz | Hell Dorado | Historical Tabletops (WRG-6th) | Hordes of the Things | Impetus | Infinity | Jovian Chronicles | Judgement | Khârn-Âges | Kings of War | Kings of War Vanguard | Kugelhagel | L'Art de la Guerre | Le Retour des Dieux | Legends of the High Seas | Legends of the Old West | Malifaux | Man O'War | Mars Attacks - The Miniatures Game | Mars: Code Aurora | Marvel Universe Miniature Game | Marvel: Crisis Protocol | MechWarrior: Dark Age | Metropolis | Middle-earth Strategy Battle Game | Monsterpocalypse | Moonstone | Mordheim | Mortal Gods | Mortebrume | Mortem et Gloriam | Muskets & Tomahawks | Mutant Chronicles Miniature Game | Mythic Battles: Pantheon | Necromunda | Nemesis | NetEpic | Okko, Era of the Asagiri | Operation World War Two | OPR Age of Fantasy | OPR Age of Fantasy: Regiments | OPR Age of Fantasy: Skirmish | OPR Grimdark Future | OPR Grimdark Future: Firefight | Pirates of the Spanish Main | Pulp Alley | Pulp City | Rapture | Relic Knights | Rezolution | Riot Quest | Rumbleslam | Runewars Miniatures Game | SAGA | Schicksalspfade | Secrets of the Third Reich | Shadow War: Armageddon | ShadowSea | Sharp Practice | Skytear | SMOG, The Thirteenth Hour | Space Hulk | Star Trek: Attack Wing | Star Wars Miniatures | Star Wars: Armada | Star Wars: Imperial Assault | Star Wars: Legion | Star Wars: X-Wing Miniatures Game | Starship Troopers | Steinhagel | Street Fighter: The Miniatures Game | Summoners | Super Fantasy Brawl | Tabletop Convention | Tanks | Team Yankee | Test of Honour | The 9th Age: Fantasy Battles | The Drowned Earth | The Uncharted Seas | The Walking Dead: All Out War | Time of Legends: Joan of Arc | Tomorrow's War | Urban War | Victory at Sea | War in the Middle Ages | War of the Ring | Warcanto | Warcaster: Neo-Mechanika | Warfleets: FTL | WarGods | Warhammer 30K: The Horus Heresy | Warhammer 40K | Warhammer 40K: Kill Team | Warhammer Age of Sigmar | Warhammer Age of Sigmar: Skirmish | Warhammer Age of Sigmar: Warcry | Warhammer Ancient Battles | Warhammer Armies Project | Warhammer Fantasy Battles | Warhammer Underworlds | Warlord | Warmachine/Hordes | Warmaster | Warmaster Ancients | Warthrone | Warzone | Wild West Exodus | Wings of Glory | Wolsung SSG | World of Warcraft Miniatures Game | Wrath of Kings


©2004-2022. T³ is operated by Althaus.IT.